MZT8082 ZYHB-ZBAA

Flight info

Callsign MZT8082
Flight time 1h 42m
Altitude 32100
Route LEG09D LEGAG W204 RUSBO G212 UKDUM W49 OSUBA OSUBA6J
Aircraft B737/M-SDFGHIM1RWXYZ/LB1

Departure

Time 2026-04-23 10:36
Airport Harbin Taiping International Airport (ZYHB)

Arrival

Time 2026-04-23 12:18
Airport Beijing Capital International Airport (ZBAA)
Time Latitude Longitude Altitude Speed Heading
2026-04-23 10:29 45.61415 126.22991 438 ft 0 kts 40°
2026-04-23 10:31 45.61420 126.22996 437 ft 2 kts 40°
2026-04-23 10:31 45.61443 126.23023 464 ft 6 kts 40°
2026-04-23 10:31 45.61458 126.23078 463 ft 7 kts 102°
2026-04-23 10:32 45.61440 126.23118 464 ft 8 kts 132°
2026-04-23 10:32 45.61400 126.23189 463 ft 10 kts 129°
2026-04-23 10:32 45.61332 126.23306 465 ft 12 kts 129°
2026-04-23 10:32 45.61296 126.23368 463 ft 13 kts 129°
2026-04-23 10:33 45.61279 126.23462 465 ft 10 kts 75°
2026-04-23 10:33 45.61262 126.23547 464 ft 0 kts 127°
2026-04-23 10:33 45.61261 126.23549 464 ft 1 kts 127°
2026-04-23 10:34 45.61252 126.23574 464 ft 5 kts 108°
2026-04-23 10:34 45.61252 126.23640 464 ft 9 kts 84°
2026-04-23 10:34 45.61262 126.23726 462 ft 7 kts 81°
2026-04-23 10:34 45.61288 126.23785 465 ft 7 kts 40°
2026-04-23 10:35 45.61328 126.23832 465 ft 8 kts 39°
2026-04-23 10:35 45.61401 126.23917 464 ft 20 kts 39°
2026-04-23 10:35 45.61740 126.24315 458 ft 108 kts 39°
2026-04-23 10:35 45.62491 126.25197 695 ft 159 kts 40°
2026-04-23 10:36 45.63335 126.26207 1800 ft 154 kts 38°
2026-04-23 10:36 45.64140 126.27022 3021 ft 135 kts 24°
2026-04-23 10:36 45.65144 126.27053 3314 ft 171 kts 336°
2026-04-23 10:36 45.66205 126.26156 4052 ft 171 kts 330°
2026-04-23 10:37 45.67207 126.25366 5169 ft 159 kts 331°
2026-04-23 10:37 45.68224 126.24620 5810 ft 178 kts 332°
2026-04-23 10:37 45.69433 126.23767 6115 ft 209 kts 333°
2026-04-23 10:37 45.70842 126.22801 6542 ft 234 kts 333°
2026-04-23 10:38 45.72325 126.21803 7543 ft 236 kts 333°
2026-04-23 10:38 45.73813 126.20796 8650 ft 237 kts 329°
2026-04-23 10:38 45.75039 126.19254 9692 ft 239 kts 306°
2026-04-23 10:38 45.75767 126.17068 10558 ft 247 kts 290°
2026-04-23 10:39 45.76309 126.14714 11559 ft 250 kts 290°
2026-04-23 10:39 45.76865 126.12261 12142 ft 272 kts 290°
2026-04-23 10:39 45.77485 126.09559 12539 ft 296 kts 290°
2026-04-23 10:39 45.78141 126.06711 13479 ft 303 kts 291°
2026-04-23 10:40 45.78727 126.03837 14487 ft 308 kts 283°
2026-04-23 10:40 45.78750 126.00746 15551 ft 316 kts 268°
2026-04-23 10:40 45.78380 125.97622 16630 ft 320 kts 265°
2026-04-23 10:40 45.77945 125.94478 17619 ft 324 kts 265°
2026-04-23 10:41 45.77494 125.91294 18581 ft 327 kts 265°
2026-04-23 10:41 45.77044 125.88073 19268 ft 331 kts 265°
2026-04-23 10:41 45.76598 125.84833 19622 ft 333 kts 266°
2026-04-23 10:41 45.76157 125.81600 19662 ft 329 kts 266°
2026-04-23 10:42 45.75721 125.78373 19668 ft 332 kts 266°
2026-04-23 10:42 45.75283 125.75106 19673 ft 336 kts 266°
2026-04-23 10:42 45.74841 125.71815 19672 ft 338 kts 266°
2026-04-23 10:42 45.74395 125.68511 19671 ft 339 kts 266°
2026-04-23 10:43 45.73948 125.65203 19661 ft 338 kts 266°
2026-04-23 10:43 45.73495 125.61903 19661 ft 338 kts 264°
2026-04-23 10:43 45.72587 125.58743 19661 ft 352 kts 245°
2026-04-23 10:43 45.70949 125.56049 19666 ft 367 kts 229°
2026-04-23 10:44 45.68720 125.54112 19658 ft 385 kts 209°
2026-04-23 10:44 45.66195 125.52868 19845 ft 394 kts 205°
2026-04-23 10:44 45.63553 125.51724 20625 ft 398 kts 204°
2026-04-23 10:44 45.60891 125.50610 21615 ft 398 kts 204°
2026-04-23 10:45 45.58228 125.49487 22518 ft 401 kts 205°
2026-04-23 10:45 45.55543 125.48333 23321 ft 405 kts 205°
2026-04-23 10:45 45.52838 125.47153 24033 ft 409 kts 205°
2026-04-23 10:45 45.50111 125.45954 24708 ft 412 kts 206°
2026-04-23 10:46 45.47357 125.44738 25359 ft 416 kts 206°
2026-04-23 10:46 45.44577 125.43510 26013 ft 420 kts 206°
2026-04-23 10:46 45.41772 125.42272 26651 ft 424 kts 206°
2026-04-23 10:46 45.38943 125.41026 27263 ft 428 kts 206°
2026-04-23 10:47 45.36078 125.39766 27864 ft 431 kts 206°
2026-04-23 10:47 45.33200 125.38502 28452 ft 435 kts 206°
2026-04-23 10:47 45.30302 125.37230 29009 ft 438 kts 206°
2026-04-23 10:47 45.27373 125.35945 29547 ft 441 kts 206°
2026-04-23 10:48 45.24424 125.34653 30044 ft 445 kts 206°
2026-04-23 10:48 45.21493 125.33371 30463 ft 447 kts 206°
2026-04-23 10:48 45.18523 125.32076 31019 ft 445 kts 206°
2026-04-23 10:48 45.15579 125.30797 31713 ft 440 kts 206°
2026-04-23 10:49 45.12657 125.29523 32003 ft 439 kts 206°
2026-04-23 10:49 45.09739 125.28250 32021 ft 438 kts 206°
2026-04-23 10:49 45.04095 125.25268 32018 ft 419 kts 222°
2026-04-23 10:50 45.01925 125.22669 32023 ft 401 kts 237°
2026-04-23 10:50 45.00276 125.19559 32032 ft 394 kts 243°
2026-04-23 10:50 44.97183 125.13158 32029 ft 395 kts 243°
2026-04-23 10:51 44.94060 125.06760 32014 ft 396 kts 243°
2026-04-23 10:51 44.90913 125.00429 32019 ft 397 kts 243°
2026-04-23 10:52 44.87730 124.94063 32011 ft 397 kts 242°
2026-04-23 10:52 44.84547 124.87716 32014 ft 396 kts 242°
2026-04-23 10:53 44.81359 124.81378 32003 ft 395 kts 242°
2026-04-23 10:53 44.78182 124.75070 32003 ft 395 kts 242°
2026-04-23 10:54 44.75004 124.68772 32006 ft 394 kts 242°
2026-04-23 10:54 44.71826 124.62487 32003 ft 394 kts 242°
2026-04-23 10:55 44.68665 124.56249 31996 ft 393 kts 242°
2026-04-23 10:55 44.65490 124.49994 32004 ft 393 kts 242°
2026-04-23 10:56 44.62304 124.43733 31992 ft 393 kts 242°
2026-04-23 10:56 44.59309 124.37363 31992 ft 385 kts 251°
2026-04-23 10:57 44.57543 124.30386 31987 ft 376 kts 262°
2026-04-23 10:57 44.56904 124.23155 31988 ft 374 kts 268°
2026-04-23 10:58 44.56227 124.15895 31978 ft 379 kts 261°
2026-04-23 10:58 44.54318 124.08910 31984 ft 389 kts 249°
2026-04-23 10:59 44.51264 124.02591 31974 ft 396 kts 240°
2026-04-23 10:59 44.47975 123.96422 31969 ft 394 kts 241°
2026-04-23 11:00 44.44743 123.90251 31967 ft 392 kts 241°
2026-04-23 11:00 44.41566 123.84080 31972 ft 391 kts 242°
2026-04-23 11:01 44.38396 123.77908 31970 ft 390 kts 242°
2026-04-23 11:01 44.35223 123.71748 31964 ft 390 kts 242°
2026-04-23 11:02 44.32047 123.65600 31958 ft 391 kts 241°
2026-04-23 11:02 44.28861 123.59450 31959 ft 391 kts 241°
2026-04-23 11:03 44.25687 123.53337 31959 ft 391 kts 241°
2026-04-23 11:03 44.22493 123.47200 31946 ft 391 kts 241°
2026-04-23 11:04 44.19298 123.41072 31939 ft 391 kts 241°
2026-04-23 11:04 44.16099 123.34948 31950 ft 390 kts 241°
2026-04-23 11:05 44.12904 123.28845 31941 ft 390 kts 241°
2026-04-23 11:05 44.09696 123.22730 31938 ft 391 kts 241°
2026-04-23 11:06 44.04901 123.13614 31930 ft 391 kts 241°
2026-04-23 11:07 44.01664 123.07477 31927 ft 391 kts 241°
2026-04-23 11:07 43.98444 123.01381 31929 ft 391 kts 241°
2026-04-23 11:08 43.95242 122.95333 31925 ft 391 kts 240°
2026-04-23 11:08 43.92037 122.89228 31918 ft 391 kts 241°
2026-04-23 11:09 43.88888 122.83080 31918 ft 391 kts 242°
2026-04-23 11:09 43.85736 122.76925 31917 ft 391 kts 241°
2026-04-23 11:10 43.82572 122.70774 31909 ft 392 kts 241°
2026-04-23 11:10 43.79403 122.64636 31902 ft 392 kts 241°
2026-04-23 11:11 43.76244 122.58531 31903 ft 393 kts 241°
2026-04-23 11:11 43.73060 122.52391 31901 ft 393 kts 241°
2026-04-23 11:12 43.69866 122.46245 31902 ft 394 kts 241°
2026-04-23 11:12 43.66662 122.40091 31891 ft 394 kts 240°
2026-04-23 11:13 43.63453 122.33941 31896 ft 395 kts 240°
2026-04-23 11:13 43.60234 122.27782 31888 ft 395 kts 240°
2026-04-23 11:14 43.57011 122.21630 31892 ft 396 kts 240°
2026-04-23 11:14 43.53797 122.15468 31887 ft 396 kts 240°
2026-04-23 11:15 43.50620 122.09316 31886 ft 396 kts 240°
2026-04-23 11:15 43.47421 122.03129 31880 ft 397 kts 240°
2026-04-23 11:16 43.44214 121.96944 31881 ft 397 kts 240°
2026-04-23 11:16 43.41000 121.90762 31877 ft 398 kts 240°
2026-04-23 11:17 43.37775 121.84572 31880 ft 398 kts 240°
2026-04-23 11:17 43.35068 121.79388 31880 ft 398 kts 240°
2026-04-23 11:18 43.31308 121.72201 31873 ft 399 kts 240°
2026-04-23 11:18 43.28060 121.66008 31875 ft 400 kts 239°
2026-04-23 11:19 43.25354 121.60857 31873 ft 400 kts 239°
2026-04-23 11:19 43.22093 121.54664 31877 ft 401 kts 239°
2026-04-23 11:20 43.18823 121.48464 31872 ft 401 kts 239°
2026-04-23 11:20 43.15544 121.42261 31867 ft 402 kts 239°
2026-04-23 11:21 43.12257 121.36058 31862 ft 402 kts 239°
2026-04-23 11:21 43.08962 121.29849 31866 ft 403 kts 239°
2026-04-23 11:22 43.05663 121.23649 31865 ft 403 kts 239°
2026-04-23 11:22 43.02354 121.17442 31866 ft 404 kts 238°
2026-04-23 11:23 42.99040 121.11238 31863 ft 404 kts 238°
2026-04-23 11:23 42.95737 121.05068 31863 ft 405 kts 238°
2026-04-23 11:24 42.92410 120.98866 31861 ft 405 kts 238°
2026-04-23 11:24 42.89075 120.92661 31861 ft 406 kts 238°
2026-04-23 11:25 42.85729 120.86451 31855 ft 406 kts 238°
2026-04-23 11:25 42.82383 120.80252 31853 ft 406 kts 238°
2026-04-23 11:26 42.79028 120.74050 31847 ft 407 kts 238°
2026-04-23 11:26 42.75686 120.67885 31844 ft 407 kts 238°
2026-04-23 11:27 42.72314 120.61676 31844 ft 407 kts 238°
2026-04-23 11:27 42.68943 120.55484 31844 ft 408 kts 238°
2026-04-23 11:28 42.65563 120.49286 31840 ft 408 kts 237°
2026-04-23 11:28 42.62178 120.43094 31843 ft 408 kts 237°
2026-04-23 11:29 42.58790 120.36908 31846 ft 408 kts 237°
2026-04-23 11:29 42.55391 120.30714 31835 ft 409 kts 237°
2026-04-23 11:30 42.51987 120.24525 31842 ft 409 kts 237°
2026-04-23 11:30 42.48603 120.18386 31854 ft 409 kts 237°
2026-04-23 11:31 42.45186 120.12198 31852 ft 410 kts 237°
2026-04-23 11:31 42.41765 120.06015 31860 ft 411 kts 237°
2026-04-23 11:32 42.38336 119.99831 31859 ft 411 kts 236°
2026-04-23 11:32 42.34891 119.93632 31857 ft 412 kts 236°
2026-04-23 11:33 42.31444 119.87442 31858 ft 413 kts 236°
2026-04-23 11:33 42.28009 119.81285 31869 ft 413 kts 236°
2026-04-23 11:34 42.24540 119.75080 31870 ft 414 kts 236°
2026-04-23 11:34 42.21055 119.68859 31872 ft 415 kts 236°
2026-04-23 11:35 42.17568 119.62649 31875 ft 416 kts 236°
2026-04-23 11:35 42.14074 119.56440 31874 ft 416 kts 236°
2026-04-23 11:36 42.10572 119.50228 31874 ft 416 kts 236°
2026-04-23 11:36 42.07067 119.44023 31878 ft 416 kts 236°
2026-04-23 11:37 42.03555 119.37819 31879 ft 416 kts 236°
2026-04-23 11:37 42.00047 119.31635 31879 ft 416 kts 236°
2026-04-23 11:38 41.96557 119.25495 31885 ft 416 kts 236°
2026-04-23 11:38 41.93046 119.19330 31887 ft 416 kts 236°
2026-04-23 11:39 41.89525 119.13160 31890 ft 416 kts 236°
2026-04-23 11:39 41.85998 119.06992 31893 ft 416 kts 236°
2026-04-23 11:40 41.82471 119.00837 31900 ft 416 kts 236°
2026-04-23 11:40 41.78943 118.94694 31900 ft 416 kts 236°
2026-04-23 11:41 41.75408 118.88549 31914 ft 416 kts 236°
2026-04-23 11:41 41.71865 118.82404 31915 ft 417 kts 236°
2026-04-23 11:42 41.68319 118.76265 31932 ft 417 kts 236°
2026-04-23 11:42 41.64765 118.70125 31928 ft 418 kts 236°
2026-04-23 11:43 41.61202 118.63982 31940 ft 418 kts 236°
2026-04-23 11:43 41.57658 118.57882 31955 ft 417 kts 236°
2026-04-23 11:44 41.54098 118.51766 31962 ft 417 kts 236°
2026-04-23 11:44 41.50942 118.45351 31969 ft 411 kts 251°
2026-04-23 11:45 41.49770 118.37988 31970 ft 405 kts 271°
2026-04-23 11:45 41.49869 118.30511 31979 ft 406 kts 273°
2026-04-23 11:46 41.50015 118.22957 31978 ft 408 kts 272°
2026-04-23 11:46 41.50123 118.15381 31933 ft 409 kts 273°
2026-04-23 11:47 41.50206 118.07768 31981 ft 411 kts 273°
2026-04-23 11:47 41.50276 118.00111 31988 ft 415 kts 272°
2026-04-23 11:48 41.50341 117.92445 31984 ft 416 kts 272°
2026-04-23 11:48 41.50402 117.84708 31985 ft 416 kts 272°
2026-04-23 11:49 41.50458 117.76995 31977 ft 415 kts 272°
2026-04-23 11:49 41.50508 117.69318 31983 ft 413 kts 272°
2026-04-23 11:50 41.50554 117.61661 31974 ft 412 kts 272°
2026-04-23 11:50 41.50594 117.54039 31980 ft 411 kts 272°
2026-04-23 11:51 41.50630 117.46429 31981 ft 410 kts 272°
2026-04-23 11:51 41.50661 117.38819 31972 ft 410 kts 272°
2026-04-23 11:52 41.49972 117.31268 31295 ft 423 kts 249°
2026-04-23 11:52 41.48424 117.27920 30561 ft 429 kts 232°
2026-04-23 11:52 41.46185 117.25265 29803 ft 435 kts 217°
2026-04-23 11:52 41.43465 117.23509 29117 ft 436 kts 199°
2026-04-23 11:53 41.40537 117.22557 28490 ft 430 kts 195°
2026-04-23 11:53 41.37623 117.21751 27848 ft 425 kts 194°
2026-04-23 11:53 41.34776 117.20999 27223 ft 420 kts 194°
2026-04-23 11:53 41.31929 117.20241 26596 ft 414 kts 194°
2026-04-23 11:54 41.29122 117.19475 25963 ft 410 kts 195°
2026-04-23 11:54 41.26347 117.18702 25353 ft 405 kts 195°
2026-04-23 11:54 41.23602 117.17926 24744 ft 401 kts 195°
2026-04-23 11:54 41.20882 117.17150 24139 ft 398 kts 195°
2026-04-23 11:55 41.18194 117.16380 23541 ft 394 kts 195°
2026-04-23 11:55 41.15526 117.15616 22847 ft 391 kts 195°
2026-04-23 11:55 41.12879 117.14858 22197 ft 386 kts 195°
2026-04-23 11:55 41.10272 117.14114 21582 ft 382 kts 195°
2026-04-23 11:56 41.07687 117.13376 20976 ft 378 kts 195°
2026-04-23 11:56 41.05126 117.12646 20366 ft 374 kts 195°
2026-04-23 11:56 41.02592 117.11923 19780 ft 371 kts 195°
2026-04-23 11:56 41.00080 117.11207 19189 ft 368 kts 195°
2026-04-23 11:57 40.97584 117.10497 18615 ft 365 kts 195°
2026-04-23 11:57 40.95110 117.09794 18015 ft 362 kts 195°
2026-04-23 11:57 40.92652 117.09095 17363 ft 360 kts 195°
2026-04-23 11:57 40.90213 117.08403 16743 ft 357 kts 195°
2026-04-23 11:58 40.87790 117.07716 16148 ft 354 kts 195°
2026-04-23 11:58 40.85391 117.07036 15558 ft 351 kts 195°
2026-04-23 11:58 40.83043 117.06371 14998 ft 349 kts 195°
2026-04-23 11:58 40.80682 117.05702 14430 ft 346 kts 195°
2026-04-23 11:59 40.78334 117.05038 13857 ft 344 kts 195°
2026-04-23 11:59 40.76002 117.04380 13246 ft 342 kts 195°
2026-04-23 11:59 40.73738 117.03519 12644 ft 335 kts 209°
2026-04-23 11:59 40.71850 117.01860 12437 ft 322 kts 222°
2026-04-23 12:00 40.70179 116.99938 12142 ft 313 kts 225°
2026-04-23 12:00 40.68595 116.98046 11901 ft 300 kts 225°
2026-04-23 12:00 40.67073 116.96246 11701 ft 289 kts 224°
2026-04-23 12:00 40.65579 116.94533 11483 ft 280 kts 224°
2026-04-23 12:01 40.64122 116.92882 11276 ft 275 kts 224°
2026-04-23 12:01 40.62667 116.91238 11077 ft 275 kts 224°
2026-04-23 12:01 40.61218 116.89602 10947 ft 274 kts 224°
2026-04-23 12:01 40.59763 116.87960 10751 ft 277 kts 224°
2026-04-23 12:02 40.58316 116.86328 10550 ft 279 kts 224°
2026-04-23 12:02 40.56843 116.84670 10343 ft 278 kts 224°
2026-04-23 12:02 40.55367 116.83011 10137 ft 278 kts 224°
2026-04-23 12:02 40.53757 116.81588 9901 ft 284 kts 204°
2026-04-23 12:03 40.51802 116.81146 9696 ft 290 kts 181°
2026-04-23 12:03 40.49792 116.81377 9460 ft 290 kts 176°
2026-04-23 12:03 40.47802 116.81710 9234 ft 287 kts 175°
2026-04-23 12:03 40.45839 116.82051 9001 ft 282 kts 176°
2026-04-23 12:04 40.43903 116.82378 8782 ft 279 kts 176°
2026-04-23 12:04 40.41980 116.82693 8576 ft 278 kts 176°
2026-04-23 12:04 40.40066 116.82997 8360 ft 276 kts 176°
2026-04-23 12:04 40.38168 116.83296 8157 ft 274 kts 176°
2026-04-23 12:05 40.36280 116.83590 7952 ft 272 kts 176°
2026-04-23 12:05 40.34425 116.83877 7746 ft 271 kts 176°
2026-04-23 12:05 40.32560 116.84164 7552 ft 269 kts 176°
2026-04-23 12:05 40.30707 116.84449 7342 ft 268 kts 176°
2026-04-23 12:06 40.28858 116.84732 7154 ft 267 kts 176°
2026-04-23 12:06 40.27016 116.85014 6928 ft 266 kts 176°
2026-04-23 12:06 40.24145 116.84120 6590 ft 255 kts 219°
2026-04-23 12:07 40.23024 116.82379 6404 ft 251 kts 242°
2026-04-23 12:07 40.22407 116.79496 6158 ft 249 kts 261°
2026-04-23 12:07 40.22270 116.77979 6021 ft 249 kts 262°
2026-04-23 12:07 40.22099 116.75721 5815 ft 248 kts 265°
2026-04-23 12:08 40.22398 116.73495 5604 ft 253 kts 291°
2026-04-23 12:08 40.23919 116.71185 5350 ft 262 kts 324°
2026-04-23 12:08 40.25035 116.70550 5219 ft 267 kts 342°
2026-04-23 12:08 40.26873 116.70142 5021 ft 270 kts 351°
2026-04-23 12:09 40.28753 116.69892 4805 ft 272 kts 351°
2026-04-23 12:09 40.30643 116.69638 4586 ft 274 kts 351°
2026-04-23 12:09 40.32542 116.69365 4358 ft 271 kts 351°
2026-04-23 12:09 40.34364 116.68937 4114 ft 261 kts 334°
2026-04-23 12:10 40.35773 116.67623 3984 ft 240 kts 304°
2026-04-23 12:10 40.36534 116.65789 3944 ft 221 kts 283°
2026-04-23 12:10 40.36765 116.63895 3916 ft 202 kts 263°
2026-04-23 12:10 40.36627 116.62141 3921 ft 186 kts 259°
2026-04-23 12:11 40.36477 116.60474 3947 ft 182 kts 258°
2026-04-23 12:11 40.36251 116.58867 3928 ft 177 kts 240°
2026-04-23 12:11 40.35361 116.57890 3891 ft 172 kts 194°
2026-04-23 12:11 40.34131 116.57811 3640 ft 182 kts 182°
2026-04-23 12:12 40.32880 116.57769 3362 ft 177 kts 182°
2026-04-23 12:12 40.31676 116.57803 3114 ft 174 kts 179°
2026-04-23 12:12 40.30484 116.57925 2980 ft 171 kts 177°
2026-04-23 12:12 40.29295 116.58086 2878 ft 173 kts 176°
2026-04-23 12:13 40.28094 116.58265 2768 ft 174 kts 176°
2026-04-23 12:13 40.26894 116.58452 2660 ft 173 kts 176°
2026-04-23 12:13 40.25699 116.58640 2562 ft 173 kts 176°
2026-04-23 12:13 40.24503 116.58828 2481 ft 174 kts 176°
2026-04-23 12:14 40.23303 116.59018 2380 ft 173 kts 176°
2026-04-23 12:14 40.22118 116.59205 2285 ft 171 kts 176°
2026-04-23 12:14 40.20943 116.59391 2183 ft 170 kts 176°
2026-04-23 12:14 40.19761 116.59577 2074 ft 172 kts 176°
2026-04-23 12:15 40.18582 116.59764 1996 ft 169 kts 177°
2026-04-23 12:15 40.17451 116.59943 1794 ft 156 kts 176°
2026-04-23 12:15 40.16419 116.60107 1594 ft 142 kts 176°
2026-04-23 12:15 40.15480 116.60255 1420 ft 128 kts 176°
2026-04-23 12:16 40.14636 116.60387 1239 ft 119 kts 176°
2026-04-23 12:16 40.13817 116.60516 1075 ft 122 kts 176°
2026-04-23 12:16 40.12957 116.60651 898 ft 124 kts 174°
2026-04-23 12:16 40.12124 116.60783 726 ft 121 kts 174°
2026-04-23 12:17 40.11283 116.60916 556 ft 124 kts 173°
2026-04-23 12:17 40.10415 116.61052 409 ft 128 kts 173°
2026-04-23 12:17 40.09523 116.61201 250 ft 128 kts 173°
2026-04-23 12:17 40.08668 116.61334 123 ft 112 kts 173°
2026-04-23 12:18 40.08046 116.61431 119 ft 68 kts 173°
2026-04-23 12:18 40.07713 116.61482 118 ft 38 kts 173°
2026-04-23 12:18 40.07477 116.61518 122 ft 29 kts 174°
2026-04-23 12:18 40.07332 116.61504 121 ft 18 kts 193°
2026-04-23 12:19 40.07219 116.61454 123 ft 16 kts 204°
2026-04-23 12:19 40.07121 116.61399 122 ft 15 kts 203°
2026-04-23 12:19 40.07030 116.61360 122 ft 13 kts 188°
2026-04-23 12:19 40.06951 116.61365 121 ft 11 kts 173°
2026-04-23 12:20 40.06878 116.61377 120 ft 10 kts 172°
2026-04-23 12:20 40.06811 116.61387 121 ft 10 kts 173°
2026-04-23 12:20 40.06735 116.61399 121 ft 12 kts 173°
2026-04-23 12:20 40.06645 116.61413 121 ft 14 kts 173°
2026-04-23 12:21 40.06542 116.61429 118 ft 15 kts 173°
2026-04-23 12:21 40.06443 116.61445 121 ft 12 kts 173°
2026-04-23 12:21 40.06380 116.61425 122 ft 10 kts 235°
2026-04-23 12:21 40.06368 116.61341 123 ft 10 kts 263°
2026-04-23 12:22 40.06358 116.61233 123 ft 14 kts 263°
2026-04-23 12:22 40.06345 116.61087 123 ft 18 kts 263°
2026-04-23 12:22 40.06328 116.60906 123 ft 21 kts 263°
2026-04-23 12:22 40.06311 116.60717 123 ft 19 kts 263°
2026-04-23 12:23 40.06296 116.60553 122 ft 18 kts 263°
2026-04-23 12:23 40.06282 116.60406 123 ft 15 kts 263°
2026-04-23 12:23 40.06269 116.60269 123 ft 14 kts 263°
2026-04-23 12:23 40.06260 116.60173 121 ft 9 kts 263°
2026-04-23 12:24 40.06254 116.60097 122 ft 8 kts 263°
2026-04-23 12:24 40.06247 116.60021 123 ft 9 kts 263°
2026-04-23 12:24 40.06240 116.59947 123 ft 9 kts 263°
2026-04-23 12:24 40.06231 116.59854 122 ft 12 kts 263°
2026-04-23 12:25 40.06220 116.59733 119 ft 13 kts 263°
2026-04-23 12:25 40.06213 116.59661 121 ft 3 kts 264°
2026-04-23 12:25 40.06211 116.59634 123 ft 3 kts 263°
2026-04-23 12:25 40.06209 116.59608 123 ft 3 kts 269°
2026-04-23 12:26 40.06216 116.59576 123 ft 5 kts 294°
2026-04-23 12:26 40.06254 116.59556 120 ft 8 kts 355°
2026-04-23 12:26 40.06322 116.59553 119 ft 12 kts 355°